Visibility
15.0 15.0 15.0 15.0 15.0 15.0 15.0 15.0 15.0 15.0 15.0 15.0 15.0 15.0 15.0 15.0 15.0 15.0 15.0 15.0 15.0 15.0 15.0 15.0 15.0 15.0 15.0 15.0 15.0 15.0 15.0 15.0 15.0 13.9 15.0 15.0 15.0 15.0 15.0 15.0 15.0 15.0 7.6
15.0 15.0 15.0 15.0 15.0 15.0 15.0 15.0 15.0 15.0 15.0 15.0 15.0 15.0 15.0 15.0 15.0 15.0 15.0 15.0 15.0 15.0 15.0 15.0 15.0 15.0 15.0 15.0 15.0 15.0 15.0 15.0 15.0 14.9 15.0 15.0 15.0 15.0 14.6 15.0 15.0 15.0 15.0
15.0 15.0 15.0 15.0 15.0 15.0 15.0 15.0 15.0 15.0 15.0 15.0 15.0 15.0 15.0 15.0 15.0 15.0 15.0 15.0 15.0 15.0 15.0 15.0 15.0 15.0 15.0 15.0 15.0 15.0 15.0 15.0 15.0 15.0 15.0 15.0 15.0 15.0 2.7 14.1 0.2 15.0 15.0
15.0 15.0 15.0 15.0 15.0 15.0 15.0 15.0 15.0 15.0 15.0 15.0 15.0 15.0 15.0 15.0 15.0 15.0 15.0 15.0 15.0 15.0 15.0 15.0 15.0 15.0 15.0 15.0 15.0 15.0 15.0 15.0 15.0 15.0 15.0 15.0 15.0 0.8 9.3 0.2 0.0 0.1 0.0
15.0 15.0 15.0 15.0 15.0 15.0 15.0 15.0 15.0 15.0 15.0 15.0 15.0 15.0 15.0 15.0 15.0 15.0 15.0 15.0 15.0 15.0 15.0 15.0 15.0 15.0 15.0 15.0 15.0 15.0 15.0 15.0 15.0 15.0 15.0 15.0 15.0 0.1 9.1 1.4 0.0 0.0 0.1
15.0 15.0 15.0 15.0 15.0 15.0 15.0 15.0 15.0 15.0 15.0 15.0 15.0 15.0 15.0 15.0 5.0 15.0 15.0 15.0 15.0 15.0 15.0 15.0 15.0 0.4 0.1 0.2 0.0 0.1 14.8 15.0 15.0 15.0 15.0 15.0 5.1 0.2 4.1 0.5 0.2 0.1 0.0
15.0 15.0 15.0 15.0 15.0 15.0 15.0 15.0 15.0 15.0 15.0 15.0 15.0 15.0 15.0 15.0 15.0 13.3 8.0 15.0 15.0 15.0 15.0 15.0 15.0 15.0 15.0 15.0 2.0 0.0 0.0 4.1 6.9 7.5 15.0 13.8 11.0 4.5 14.8 6.9 11.4 15.0 11.7
10.2 15.0 15.0 15.0 15.0 15.0 15.0 15.0 15.0 15.0 15.0 15.0 15.0 15.0 15.0 14.0 0.4 1.0 6.8 15.0 15.0 15.0 15.0 13.5 15.0 15.0 15.0 15.0 15.0 15.0 15.0 8.7 4.5 15.0 14.6 6.4 6.6 14.7 15.0 7.7 15.0 15.0 7.0
3.7 14.4 15.0 15.0 15.0 15.0 15.0 15.0 15.0 15.0 15.0 15.0 15.0 15.0 15.0 14.1 0.1 0.0 0.1 15.0 15.0 15.0 15.0 15.0 15.0 15.0 0.0 0.0 15.0 15.0 14.2 0.1 0.1 0.1 0.1 0.1 0.2 14.2 15.0 15.0 15.0 9.5 0.1
2.0 9.3 15.0 15.0 15.0 15.0 15.0 15.0 15.0 15.0 15.0 15.0 15.0 13.1 3.2 14.4 0.0 0.0 0.1 15.0 15.0 15.0 15.0 15.0 0.1 10.0 0.0 0.0 14.4 15.0 0.1 0.1 0.3 1.0 1.5 1.4 1.2 2.3 0.4 15.0 15.0 15.0 15.0
4.8 9.3 15.0 15.0 15.0 15.0 15.0 15.0 15.0 15.0 15.0 15.0 15.0 15.0 15.0 15.0 0.1 0.0 0.0 15.0 15.0 15.0 15.0 15.0 15.0 0.0 0.0 0.0 0.0 15.0 9.7 15.0 0.1 15.0 15.0 13.8 13.9 9.7 15.0 15.0 15.0 14.0 15.0
7.7 15.0 12.1 15.0 15.0 15.0 15.0 15.0 15.0 15.0 15.0 15.0 6.4 0.2 6.9 15.0 0.1 0.0 0.0 0.8 0.1 15.0 15.0 15.0 8.1 0.0 0.0 0.0 0.0 0.0 0.0 7.2 15.0 15.0 15.0 15.0 0.1 0.1 15.0 15.0 15.0 11.5 15.0
13.6 7.7 15.0 15.0 15.0 15.0 15.0 15.0 15.0 14.0 8.5 4.4 15.0 13.5 2.2 15.0 9.1 0.0 0.0 0.0 0.4 11.4 15.0 1.3 0.0 0.0 0.0 0.0 0.0 0.0 0.1 15.0 15.0 15.0 15.0 15.0 15.0 13.8 15.0 15.0 15.0 15.0 15.0
4.0 10.9 15.0 15.0 13.1 6.2 15.0 4.3 13.1 15.0 15.0 15.0 15.0 15.0 15.0 15.0 15.0 14.2 1.1 2.5 1.2 15.0 2.5 0.6 0.1 0.1 0.1 0.1 0.1 2.3 15.0 15.0 15.0 15.0 15.0 15.0 15.0 1.8 3.2 15.0 15.0 15.0 15.0
7.6 15.0 0.8 1.8 0.4 0.5 1.6 8.7 15.0 12.8 13.3 15.0 15.0 15.0 15.0 15.0 9.9 8.6 8.7 15.0 15.0 0.7 7.0 6.6 0.2 0.3 0.0 0.0 1.5 15.0 15.0 15.0 15.0 15.0 15.0 15.0 1.0 0.3 0.2 15.0 15.0 15.0 15.0
7.0 12.4 7.2 0.7 10.4 15.0 14.0 0.1 0.0 0.0 0.0 0.1 5.0 15.0 5.1 0.1 0.0 0.0 0.0 0.0 0.0 0.0 10.6 0.5 0.0 0.1 0.0 0.1 5.9 15.0 15.0 0.6 15.0 15.0 15.0 15.0 0.8 0.8 0.2 7.7 15.0 13.3 8.4
4.0 15.0 8.0 12.8 15.0 15.0 15.0 15.0 0.0 0.0 0.0 0.0 0.0 0.0 0.6 0.1 0.0 0.0 0.0 0.0 0.0 0.0 15.0 15.0 0.1 0.1 0.1 1.3 15.0 15.0 15.0 15.0 15.0 15.0 15.0 15.0 15.0 13.1 3.9 14.8 15.0 15.0 11.7
15.0 4.0 15.0 15.0 15.0 15.0 15.0 15.0 12.9 2.0 0.1 0.1 0.0 0.1 0.0 0.0 0.0 0.0 0.0 0.1 0.0 3.3 15.0 15.0 8.2 0.3 15.0 15.0 15.0 15.0 15.0 15.0 15.0 15.0 15.0 15.0 15.0 15.0 15.0 15.0 15.0 15.0 15.0
15.0 15.0 15.0 15.0 14.1 7.9 15.0 15.0 15.0 15.0 15.0 0.2 2.6 0.1 0.0 0.0 0.0 0.0 0.0 15.0 15.0 15.0 15.0 15.0 15.0 15.0 15.0 15.0 15.0 15.0 15.0 15.0 15.0 15.0 15.0 15.0 15.0 15.0 15.0 15.0 7.8 0.1 0.2
15.0 2.4 15.0 15.0 14.5 15.0 15.0 15.0 15.0 15.0 15.0 15.0 15.0 0.1 0.1 0.6 0.0 0.0 0.8 15.0 14.7 15.0 15.0 15.0 15.0 15.0 15.0 15.0 15.0 15.0 15.0 11.6 15.0 15.0 15.0 15.0 15.0 15.0 15.0 15.0 15.0 15.0 12.1
15.0 15.0 0.1 13.1 15.0 15.0 14.8 15.0 15.0 15.0 15.0 15.0 0.4 1.8 0.0 0.8 0.1 0.2 2.2 15.0 15.0 15.0 15.0 15.0 15.0 15.0 15.0 13.0 15.0 15.0 15.0 15.0 15.0 15.0 15.0 15.0 15.0 15.0 15.0 15.0 15.0 13.9 9.5
14.2 15.0 15.0 15.0 15.0 15.0 15.0 15.0 15.0 15.0 15.0 0.2 0.1 0.1 0.0 15.0 15.0 15.0 15.0 10.5 15.0 14.9 15.0 15.0 15.0 15.0 15.0 15.0 5.2 15.0 15.0 15.0 15.0 15.0 15.0 15.0 14.0 15.0 15.0 15.0 15.0 15.0 15.0
15.0 15.0 15.0 15.0 15.0 0.1 8.8 14.1 15.0 15.0 15.0 15.0 15.0 10.8 15.0 15.0 15.0 3.2 0.2 0.3 15.0 15.0 15.0 15.0 15.0 15.0 15.0 15.0 15.0 7.3 14.9 8.6 15.0 13.1 15.0 15.0 15.0 15.0 15.0 15.0 15.0 11.0 11.8
15.0 15.0 15.0 15.0 15.0 15.0 15.0 15.0 15.0 2.6 15.0 15.0 15.0 15.0 15.0 15.0 15.0 15.0 15.0 4.7 15.0 15.0 15.0 15.0 12.3 11.0 15.0 15.0 15.0 15.0 14.4 15.0 15.0 15.0 14.9 13.7 6.9 11.8 8.9 15.0 15.0 15.0 15.0
15.0 15.0 15.0 15.0 15.0 15.0 15.0 15.0 15.0 15.0 15.0 15.0 15.0 15.0 15.0 15.0 15.0 15.0 15.0 15.0 15.0 15.0 15.0 15.0 15.0 15.0 6.4 15.0 15.0 15.0 0.1 0.1 8.0 0.0 13.9 13.7 15.0 15.0 9.3 15.0 15.0 15.0 15.0
15.0 14.4 15.0 15.0 15.0 15.0 15.0 15.0 15.0 15.0 15.0 15.0 15.0 15.0 15.0 15.0 15.0 15.0 15.0 15.0 15.0 15.0 15.0 15.0 15.0 15.0 15.0 12.6 11.9 8.0 10.4 15.0 3.8 3.7 15.0 15.0 11.9 12.2 12.3 15.0 15.0 12.1 15.0